{"data":{"norad_id":59450,"intl_designator":"2024-066J","name":"HAWK-9B","alt_names":[],"object_type":"PAYLOAD","status":"ACTIVE","operator":null,"country":"US","launch_date":"2024-04-07","launch_site_code":"AFETR","launch_vehicle":null,"mission":null,"orbit_class":"UNKNOWN","rcs_meters":null,"size_class":null,"mass_kg":null,"dimensions":null,"purposes":[],"wikipedia_slug":null,"has_3d_model":false,"image_url":null,"decayed_at":null,"tle_current":{"epoch":"2026-09-22T08:27:17.964000Z","epoch_age_seconds":103548,"freshness":"FRESH","line1":"1 59450U 24066J   26265.35229125  .00000861  00000+0  87997-4 0  9999","line2":"2 59450  45.6092 135.8552 0003260 191.5495 168.5312 14.99386155134415","mean_motion":14.99386155,"eccentricity":0.000326,"inclination_deg":45.6092,"raan_deg":135.8552,"arg_perigee_deg":191.5495,"mean_anomaly_deg":168.5312,"bstar":8.7997e-5,"rev_number":13441,"period_min":96.039302163624,"perigee_km":566.52703727311,"apogee_km":571.05643480901,"semimajor_km":6946.9287360411,"source":"CELESTRAK","updated_at":"2026-09-23T09:00:19.376218Z"}}}